GFSNW_prec_precacc6_057.txt.gz
Total_Precipitation_Accumulation
0.04 0.04 0.05 0.05 0.04 0.06 0.18 0.20 0.13 0.05 0.07 0.14 0.11 0.03 0.00 0.00 0.00 0.00 0.00 0.00 0.00 0.00 0.00 0.00 0.00 0.00 0.00 0.00 0.00 0.00 0.00 0.00 0.00 0.00 0.00 0.00 0.00 0.00 0.00 0.00 0.00 0.00 0.00 0.00
0.08 0.06 0.06 0.07 0.07 0.09 0.20 0.31 0.11 0.15 0.08 0.09 0.04 0.01 0.00 0.00 0.00 0.00 0.00 0.00 0.00 0.00 0.00 0.00 0.00 0.00 0.00 0.00 0.00 0.00 0.00 0.00 0.00 0.00 0.00 0.00 0.00 0.00 0.00 0.00 0.00 0.00 0.01 0.00
0.13 0.16 0.13 0.15 0.13 0.16 0.19 0.28 0.22 0.31 0.12 0.01 0.00 0.00 0.00 0.00 0.00 0.00 0.00 0.00 0.00 0.00 0.00 0.00 0.00 0.00 0.00 0.00 0.00 0.00 0.00 0.00 0.00 0.00 0.00 0.00 0.00 0.00 0.00 0.00 0.00 0.00 0.00 0.00
0.04 0.14 0.24 0.26 0.23 0.25 0.31 0.41 0.17 0.17 0.07 0.02 0.00 0.00 0.00 0.00 0.00 0.00 0.00 0.00 0.00 0.00 0.00 0.00 0.00 0.00 0.00 0.00 0.00 0.00 0.00 0.00 0.00 0.00 0.00 0.00 0.00 0.00 0.00 0.00 0.00 0.00 0.00 0.00
0.04 0.10 0.19 0.31 0.42 0.38 0.47 0.39 0.03 0.02 0.01 0.00 0.00 0.00 0.00 0.00 0.00 0.00 0.00 0.00 0.00 0.00 0.00 0.00 0.00 0.00 0.00 0.00 0.00 0.00 0.00 0.00 0.00 0.00 0.00 0.00 0.00 0.00 0.00 0.00 0.00 0.00 0.00 0.00
0.05 0.12 0.20 0.30 0.44 0.68 0.74 0.28 0.01 0.03 0.02 0.02 0.02 0.01 0.00 0.00 0.00 0.00 0.00 0.00 0.00 0.00 0.00 0.01 0.00 0.00 0.00 0.00 0.00 0.00 0.00 0.00 0.00 0.00 0.00 0.00 0.00 0.00 0.00 0.00 0.00 0.00 0.00 0.00
0.06 0.15 0.22 0.31 0.42 0.73 0.57 0.14 0.01 0.05 0.06 0.06 0.00 0.00 0.00 0.00 0.00 0.00 0.00 0.00 0.00 0.00 0.00 0.00 0.00 0.01 0.00 0.00 0.00 0.00 0.00 0.00 0.00 0.00 0.00 0.00 0.00 0.00 0.00 0.00 0.00 0.00 0.00 0.00
0.09 0.18 0.23 0.31 0.35 0.48 0.37 0.02 0.01 0.03 0.05 0.03 0.01 0.00 0.00 0.00 0.01 0.00 0.00 0.00 0.00 0.00 0.00 0.00 0.00 0.00 0.02 0.00 0.00 0.00 0.00 0.00 0.01 0.00 0.00 0.00 0.00 0.00 0.00 0.00 0.00 0.00 0.00 0.00
0.12 0.18 0.21 0.25 0.25 0.38 0.30 0.03 0.01 0.03 0.03 0.01 0.01 0.02 0.00 0.00 0.01 0.01 0.00 0.00 0.00 0.00 0.01 0.00 0.00 0.00 0.01 0.01 0.01 0.00 0.00 0.00 0.02 0.00 0.00 0.00 0.00 0.00 0.00 0.00 0.00 0.00 0.00 0.00
0.15 0.16 0.16 0.17 0.18 0.32 0.23 0.05 0.01 0.03 0.04 0.03 0.06 0.07 0.02 0.00 0.01 0.02 0.01 0.00 0.01 0.00 0.00 0.00 0.00 0.00 0.00 0.00 0.01 0.01 0.00 0.00 0.01 0.02 0.00 0.00 0.00 0.00 0.00 0.00 0.00 0.00 0.00 0.00
0.15 0.12 0.13 0.13 0.19 0.30 0.17 0.08 0.01 0.04 0.05 0.06 0.08 0.12 0.12 0.02 0.01 0.03 0.01 0.03 0.02 0.02 0.01 0.00 0.00 0.00 0.00 0.00 0.00 0.00 0.00 0.02 0.01 0.02 0.02 0.00 0.00 0.00 0.00 0.00 0.00 0.00 0.00 0.00
0.11 0.11 0.12 0.11 0.25 0.24 0.10 0.09 0.03 0.04 0.08 0.09 0.16 0.11 0.16 0.06 0.00 0.00 0.01 0.01 0.00 0.00 0.00 0.00 0.00 0.01 0.00 0.00 0.00 0.00 0.00 0.02 0.03 0.01 0.00 0.00 0.00 0.00 0.00 0.00 0.00 0.00 0.00 0.00
0.12 0.11 0.13 0.17 0.25 0.17 0.07 0.05 0.04 0.03 0.06 0.05 0.03 0.08 0.08 0.15 0.01 0.01 0.04 0.01 0.00 0.00 0.00 0.00 0.00 0.00 0.00 0.00 0.00 0.00 0.00 0.00 0.00 0.00 0.00 0.00 0.00 0.00 0.00 0.00 0.00 0.00 0.00 0.00
0.15 0.14 0.19 0.19 0.21 0.16 0.02 0.02 0.02 0.02 0.03 0.07 0.03 0.03 0.05 0.11 0.07 0.02 0.02 0.02 0.00 0.00 0.00 0.00 0.00 0.00 0.00 0.00 0.00 0.00 0.00 0.00 0.00 0.00 0.00 0.00 0.00 0.00 0.00 0.00 0.00 0.00 0.00 0.00
0.19 0.20 0.19 0.21 0.23 0.09 0.01 0.01 0.01 0.01 0.02 0.04 0.01 0.03 0.05 0.07 0.10 0.03 0.02 0.04 0.03 0.03 0.01 0.00 0.00 0.00 0.00 0.00 0.00 0.00 0.00 0.00 0.00 0.00 0.00 0.01 0.00 0.00 0.00 0.00 0.00 0.00 0.00 0.00
0.14 0.16 0.22 0.20 0.10 0.03 0.02 0.08 0.03 0.01 0.01 0.01 0.02 0.03 0.02 0.10 0.10 0.08 0.05 0.02 0.05 0.04 0.04 0.03 0.01 0.00 0.00 0.00 0.00 0.00 0.00 0.00 0.00 0.00 0.00 0.00 0.00 0.00 0.00 0.00 0.00 0.00 0.00 0.00
0.12 0.14 0.09 0.06 0.02 0.01 0.03 0.04 0.01 0.00 0.04 0.11 0.05 0.03 0.03 0.05 0.16 0.14 0.07 0.04 0.05 0.07 0.08 0.05 0.03 0.03 0.01 0.00 0.00 0.00 0.00 0.00 0.00 0.00 0.00 0.00 0.00 0.00 0.00 0.00 0.00 0.00 0.00 0.00
0.06 0.04 0.04 0.05 0.05 0.03 0.02 0.02 0.00 0.04 0.10 0.10 0.11 0.11 0.14 0.15 0.22 0.20 0.15 0.10 0.09 0.10 0.06 0.03 0.02 0.03 0.05 0.02 0.00 0.00 0.00 0.00 0.00 0.00 0.00 0.00 0.00 0.00 0.00 0.00 0.00 0.00 0.00 0.00
0.02 0.04 0.06 0.08 0.05 0.03 0.03 0.04 0.01 0.03 0.13 0.06 0.04 0.21 0.24 0.38 0.30 0.21 0.16 0.15 0.10 0.07 0.06 0.02 0.03 0.02 0.02 0.00 0.00 0.00 0.00 0.00 0.00 0.00 0.00 0.00 0.00 0.00 0.00 0.00 0.00 0.00 0.00 0.00
0.01 0.01 0.02 0.02 0.01 0.04 0.06 0.10 0.07 0.08 0.09 0.07 0.03 0.23 0.53 0.58 0.38 0.13 0.15 0.14 0.13 0.06 0.02 0.05 0.03 0.01 0.00 0.00 0.00 0.00 0.00 0.00 0.00 0.00 0.00 0.00 0.00 0.00 0.00 0.00 0.00 0.00 0.00 0.00
0.01 0.02 0.03 0.02 0.07 0.10 0.09 0.06 0.04 0.04 0.03 0.02 0.01 0.12 0.47 0.34 0.22 0.06 0.14 0.06 0.18 0.21 0.11 0.04 0.03 0.01 0.01 0.00 0.00 0.00 0.00 0.00 0.00 0.00 0.00 0.00 0.00 0.00 0.00 0.00 0.00 0.00 0.00 0.00
0.09 0.07 0.04 0.09 0.12 0.04 0.01 0.01 0.01 0.01 0.02 0.02 0.02 0.06 0.16 0.10 0.16 0.13 0.08 0.02 0.01 0.04 0.13 0.19 0.15 0.04 0.01 0.00 0.00 0.00 0.00 0.00 0.00 0.00 0.00 0.00 0.00 0.00 0.00 0.00 0.00 0.00 0.00 0.00
0.11 0.06 0.03 0.07 0.04 0.07 0.05 0.03 0.02 0.01 0.01 0.00 0.02 0.03 0.07 0.07 0.08 0.08 0.01 0.01 0.01 0.03 0.15 0.20 0.14 0.07 0.03 0.01 0.01 0.00 0.00 0.01 0.03 0.03 0.03 0.02 0.02 0.02 0.02 0.03 0.04 0.05 0.09 0.14
0.05 0.13 0.14 0.28 0.17 0.20 0.14 0.10 0.05 0.02 0.01 0.01 0.02 0.02 0.05 0.08 0.06 0.03 0.04 0.06 0.06 0.11 0.13 0.16 0.13 0.14 0.18 0.20 0.19 0.17 0.19 0.20 0.22 0.22 0.21 0.21 0.21 0.22 0.24 0.26 0.30 0.33 0.42 0.51
0.20 0.33 0.29 0.26 0.29 0.22 0.16 0.15 0.13 0.12 0.08 0.05 0.07 0.12 0.14 0.08 0.10 0.09 0.07 0.07 0.05 0.05 0.07 0.10 0.11 0.14 0.17 0.21 0.26 0.29 0.28 0.26 0.23 0.23 0.26 0.31 0.34 0.35 0.39 0.42 0.42 0.36 0.32 0.27
0.21 0.23 0.26 0.26 0.31 0.29 0.28 0.28 0.25 0.26 0.22 0.22 0.27 0.28 0.16 0.11 0.06 0.04 0.04 0.03 0.03 0.05 0.06 0.08 0.10 0.10 0.12 0.16 0.19 0.23 0.23 0.20 0.17 0.16 0.15 0.16 0.18 0.16 0.17 0.21 0.22 0.22 0.17 0.15
0.17 0.22 0.29 0.34 0.31 0.31 0.31 0.30 0.28 0.27 0.22 0.18 0.15 0.11 0.07 0.07 0.02 0.03 0.02 0.04 0.08 0.10 0.09 0.11 0.13 0.13 0.16 0.17 0.19 0.21 0.19 0.14 0.11 0.09 0.10 0.12 0.14 0.11 0.08 0.09 0.12 0.08 0.07 0.06

GFSNW_prec_precacc6_060.txt.gz
Total_Precipitation_Accumulation
0.03 0.03 0.04 0.05 0.05 0.06 0.13 0.11 0.06 0.04 0.09 0.16 0.14 0.03 0.00 0.00 0.00 0.00 0.00 0.00 0.00 0.00 0.00 0.00 0.00 0.00 0.00 0.00 0.00 0.00 0.00 0.00 0.00 0.00 0.00 0.00 0.00 0.00 0.00 0.00 0.00 0.01 0.02 0.01
0.10 0.05 0.05 0.06 0.06 0.10 0.18 0.20 0.07 0.15 0.08 0.09 0.05 0.00 0.00 0.00 0.00 0.00 0.00 0.00 0.00 0.00 0.00 0.00 0.00 0.00 0.00 0.00 0.00 0.00 0.00 0.00 0.00 0.00 0.00 0.00 0.00 0.00 0.00 0.00 0.00 0.01 0.07 0.01
0.11 0.18 0.13 0.08 0.10 0.16 0.25 0.26 0.21 0.26 0.15 0.01 0.00 0.00 0.00 0.00 0.00 0.00 0.00 0.00 0.00 0.00 0.00 0.00 0.00 0.00 0.00 0.00 0.00 0.00 0.00 0.00 0.00 0.00 0.00 0.00 0.00 0.00 0.00 0.00 0.00 0.00 0.01 0.00
0.02 0.08 0.25 0.25 0.16 0.21 0.51 0.56 0.22 0.11 0.08 0.02 0.00 0.00 0.00 0.00 0.00 0.00 0.00 0.00 0.01 0.00 0.00 0.01 0.00 0.00 0.00 0.00 0.00 0.00 0.00 0.00 0.00 0.00 0.00 0.00 0.00 0.00 0.00 0.00 0.00 0.00 0.00 0.00
0.02 0.02 0.07 0.33 0.46 0.34 0.74 0.71 0.09 0.02 0.00 0.00 0.01 0.00 0.00 0.00 0.00 0.00 0.00 0.00 0.00 0.00 0.00 0.01 0.01 0.00 0.01 0.00 0.00 0.00 0.00 0.00 0.00 0.00 0.00 0.00 0.00 0.00 0.00 0.00 0.00 0.00 0.00 0.00
0.03 0.03 0.02 0.07 0.54 0.81 1.20 0.73 0.04 0.03 0.02 0.03 0.03 0.01 0.00 0.00 0.00 0.00 0.00 0.00 0.00 0.00 0.00 0.02 0.11 0.05 0.02 0.00 0.00 0.00 0.00 0.00 0.00 0.00 0.00 0.00 0.00 0.00 0.00 0.00 0.00 0.00 0.00 0.00
0.04 0.05 0.04 0.03 0.24 0.98 1.13 0.48 0.03 0.11 0.10 0.07 0.01 0.00 0.00 0.00 0.00 0.00 0.00 0.00 0.00 0.00 0.01 0.04 0.16 0.09 0.03 0.01 0.00 0.00 0.00 0.00 0.00 0.00 0.00 0.00 0.00 0.00 0.00 0.00 0.00 0.00 0.00 0.00
0.10 0.06 0.05 0.05 0.17 0.52 0.98 0.25 0.01 0.04 0.07 0.02 0.01 0.00 0.00 0.00 0.00 0.00 0.00 0.00 0.00 0.00 0.02 0.03 0.09 0.12 0.07 0.02 0.00 0.00 0.00 0.02 0.05 0.02 0.01 0.00 0.00 0.00 0.00 0.00 0.00 0.00 0.00 0.00
0.10 0.12 0.08 0.09 0.17 0.35 0.62 0.38 0.02 0.02 0.04 0.02 0.00 0.01 0.00 0.00 0.00 0.01 0.00 0.00 0.00 0.00 0.03 0.05 0.03 0.01 0.01 0.02 0.01 0.00 0.00 0.01 0.07 0.04 0.01 0.00 0.00 0.00 0.00 0.00 0.00 0.00 0.00 0.00
0.08 0.10 0.15 0.13 0.17 0.30 0.32 0.31 0.04 0.04 0.04 0.01 0.01 0.05 0.02 0.00 0.00 0.02 0.00 0.00 0.03 0.06 0.04 0.01 0.00 0.00 0.00 0.00 0.01 0.01 0.04 0.02 0.02 0.06 0.04 0.00 0.00 0.00 0.00 0.00 0.00 0.00 0.00 0.00
0.09 0.07 0.13 0.14 0.18 0.32 0.24 0.16 0.06 0.07 0.06 0.03 0.03 0.08 0.06 0.01 0.01 0.04 0.01 0.05 0.07 0.14 0.06 0.01 0.00 0.00 0.00 0.00 0.00 0.00 0.02 0.06 0.04 0.05 0.06 0.01 0.00 0.00 0.00 0.00 0.00 0.00 0.00 0.00
0.07 0.06 0.10 0.14 0.27 0.30 0.18 0.14 0.09 0.09 0.13 0.13 0.07 0.10 0.15 0.05 0.00 0.01 0.01 0.02 0.02 0.03 0.03 0.00 0.00 0.01 0.01 0.00 0.00 0.00 0.00 0.02 0.04 0.02 0.00 0.00 0.00 0.00 0.00 0.00 0.00 0.00 0.00 0.00
0.06 0.08 0.11 0.17 0.27 0.18 0.16 0.10 0.09 0.21 0.25 0.09 0.03 0.02 0.03 0.11 0.01 0.02 0.13 0.03 0.00 0.00 0.00 0.00 0.01 0.01 0.00 0.00 0.00 0.00 0.00 0.00 0.00 0.01 0.01 0.01 0.00 0.00 0.00 0.00 0.00 0.00 0.00 0.00
0.06 0.09 0.15 0.17 0.20 0.16 0.13 0.07 0.06 0.11 0.08 0.07 0.04 0.02 0.02 0.08 0.07 0.02 0.05 0.06 0.02 0.00 0.00 0.00 0.04 0.01 0.00 0.00 0.00 0.00 0.00 0.00 0.00 0.00 0.00 0.00 0.00 0.00 0.00 0.00 0.00 0.00 0.00 0.00
0.09 0.13 0.15 0.21 0.26 0.17 0.12 0.08 0.06 0.05 0.04 0.03 0.04 0.02 0.01 0.01 0.09 0.03 0.04 0.06 0.07 0.07 0.08 0.02 0.03 0.00 0.00 0.00 0.00 0.00 0.00 0.00 0.00 0.00 0.00 0.00 0.00 0.00 0.00 0.00 0.00 0.00 0.00 0.00
0.13 0.17 0.24 0.25 0.18 0.10 0.10 0.17 0.09 0.04 0.01 0.01 0.05 0.03 0.00 0.03 0.04 0.03 0.03 0.05 0.08 0.09 0.07 0.04 0.00 0.00 0.00 0.00 0.00 0.00 0.00 0.00 0.00 0.00 0.00 0.00 0.00 0.00 0.00 0.00 0.00 0.00 0.00 0.00
0.19 0.21 0.13 0.06 0.03 0.04 0.07 0.11 0.04 0.00 0.00 0.00 0.01 0.02 0.04 0.04 0.07 0.07 0.04 0.04 0.05 0.11 0.15 0.08 0.02 0.01 0.00 0.00 0.00 0.00 0.00 0.00 0.00 0.00 0.00 0.00 0.00 0.00 0.00 0.00 0.00 0.00 0.00 0.00
0.14 0.12 0.11 0.12 0.10 0.08 0.04 0.01 0.00 0.00 0.00 0.00 0.04 0.09 0.12 0.08 0.11 0.12 0.10 0.08 0.10 0.10 0.11 0.07 0.04 0.04 0.07 0.03 0.00 0.00 0.00 0.00 0.00 0.00 0.00 0.00 0.00 0.00 0.00 0.00 0.00 0.00 0.00 0.00
0.08 0.08 0.08 0.09 0.10 0.09 0.05 0.01 0.01 0.02 0.03 0.03 0.02 0.13 0.27 0.38 0.26 0.17 0.11 0.15 0.13 0.10 0.11 0.06 0.07 0.07 0.09 0.02 0.00 0.00 0.00 0.00 0.00 0.00 0.00 0.00 0.00 0.00 0.00 0.00 0.00 0.00 0.00 0.00
0.02 0.01 0.02 0.06 0.03 0.01 0.01 0.08 0.03 0.02 0.02 0.05 0.02 0.05 0.30 0.76 0.45 0.26 0.17 0.18 0.09 0.05 0.04 0.11 0.08 0.05 0.02 0.00 0.00 0.00 0.00 0.00 0.00 0.00 0.00 0.00 0.00 0.00 0.00 0.00 0.00 0.00 0.00 0.00
0.02 0.04 0.05 0.04 0.05 0.11 0.12 0.08 0.06 0.05 0.04 0.02 0.01 0.04 0.26 0.57 0.64 0.25 0.22 0.21 0.11 0.06 0.07 0.11 0.09 0.04 0.01 0.00 0.00 0.00 0.00 0.00 0.00 0.00 0.00 0.00 0.00 0.00 0.00 0.00 0.00 0.00 0.00 0.00
0.04 0.04 0.03 0.07 0.14 0.11 0.03 0.04 0.03 0.03 0.07 0.06 0.03 0.05 0.18 0.38 0.64 0.46 0.24 0.20 0.06 0.06 0.09 0.20 0.22 0.08 0.01 0.00 0.00 0.00 0.00 0.00 0.00 0.00 0.00 0.00 0.00 0.00 0.00 0.00 0.00 0.00 0.00 0.00
0.08 0.04 0.03 0.06 0.04 0.03 0.03 0.03 0.01 0.03 0.04 0.02 0.05 0.05 0.15 0.24 0.35 0.47 0.18 0.22 0.07 0.12 0.14 0.17 0.12 0.05 0.02 0.01 0.01 0.01 0.00 0.00 0.00 0.00 0.00 0.00 0.00 0.00 0.00 0.00 0.00 0.01 0.03 0.05
0.02 0.02 0.02 0.10 0.05 0.05 0.05 0.05 0.04 0.01 0.01 0.01 0.04 0.03 0.08 0.11 0.15 0.26 0.12 0.17 0.10 0.15 0.11 0.12 0.06 0.06 0.05 0.07 0.09 0.11 0.14 0.14 0.12 0.11 0.10 0.11 0.14 0.18 0.20 0.21 0.22 0.24 0.31 0.40
0.02 0.05 0.09 0.08 0.08 0.05 0.02 0.02 0.01 0.01 0.01 0.02 0.02 0.04 0.11 0.07 0.10 0.12 0.06 0.04 0.05 0.04 0.07 0.06 0.07 0.09 0.08 0.11 0.16 0.22 0.25 0.25 0.22 0.19 0.16 0.19 0.22 0.22 0.28 0.31 0.32 0.31 0.33 0.35
0.05 0.10 0.16 0.11 0.09 0.07 0.06 0.06 0.05 0.05 0.05 0.08 0.14 0.24 0.16 0.07 0.05 0.03 0.03 0.03 0.04 0.07 0.08 0.08 0.09 0.10 0.11 0.13 0.16 0.18 0.17 0.15 0.14 0.14 0.14 0.14 0.15 0.15 0.16 0.20 0.21 0.24 0.22 0.22
0.11 0.17 0.18 0.19 0.17 0.17 0.16 0.17 0.16 0.17 0.16 0.19 0.17 0.15 0.10 0.07 0.03 0.03 0.03 0.06 0.08 0.09 0.09 0.09 0.11 0.11 0.13 0.13 0.14 0.15 0.13 0.11 0.10 0.11 0.12 0.15 0.16 0.13 0.09 0.12 0.17 0.13 0.12 0.11

GFSNW_prec_precacc6_063.txt.gz
Total_Precipitation_Accumulation
0.04 0.04 0.04 0.06 0.05 0.07 0.16 0.20 0.14 0.03 0.05 0.12 0.11 0.01 0.00 0.00 0.00 0.00 0.00 0.00 0.00 0.00 0.00 0.00 0.01 0.00 0.00 0.00 0.00 0.00 0.00 0.00 0.00 0.00 0.00 0.00 0.00 0.00 0.00 0.00 0.00 0.01 0.02 0.01
0.08 0.05 0.06 0.08 0.06 0.10 0.25 0.37 0.13 0.09 0.06 0.06 0.02 0.00 0.00 0.00 0.00 0.00 0.00 0.00 0.00 0.00 0.00 0.00 0.00 0.00 0.00 0.00 0.00 0.00 0.00 0.00 0.00 0.00 0.00 0.00 0.00 0.00 0.00 0.00 0.00 0.01 0.07 0.00
0.03 0.11 0.11 0.09 0.14 0.16 0.35 0.45 0.29 0.17 0.23 0.01 0.00 0.00 0.00 0.00 0.00 0.00 0.00 0.00 0.00 0.00 0.00 0.00 0.00 0.00 0.00 0.00 0.00 0.00 0.00 0.00 0.00 0.00 0.00 0.00 0.00 0.00 0.00 0.00 0.01 0.00 0.01 0.00
0.02 0.04 0.16 0.21 0.15 0.22 0.60 0.79 0.28 0.06 0.14 0.05 0.00 0.00 0.00 0.00 0.00 0.00 0.00 0.00 0.01 0.00 0.00 0.01 0.00 0.01 0.02 0.00 0.00 0.00 0.00 0.00 0.00 0.00 0.00 0.00 0.00 0.00 0.00 0.00 0.00 0.01 0.00 0.00
0.00 0.00 0.05 0.29 0.32 0.32 0.75 0.88 0.14 0.01 0.00 0.01 0.01 0.01 0.00 0.00 0.00 0.00 0.00 0.00 0.00 0.00 0.00 0.01 0.02 0.03 0.07 0.05 0.00 0.00 0.00 0.00 0.00 0.00 0.00 0.00 0.00 0.00 0.00 0.00 0.00 0.00 0.00 0.00
0.02 0.01 0.00 0.05 0.38 0.62 1.22 0.92 0.07 0.02 0.01 0.02 0.02 0.01 0.00 0.00 0.00 0.00 0.00 0.00 0.00 0.00 0.00 0.02 0.12 0.06 0.05 0.10 0.09 0.01 0.00 0.00 0.00 0.00 0.00 0.00 0.00 0.00 0.00 0.00 0.00 0.00 0.00 0.00
0.03 0.02 0.01 0.01 0.08 0.66 1.12 0.72 0.05 0.12 0.16 0.05 0.02 0.00 0.00 0.00 0.00 0.00 0.00 0.00 0.00 0.00 0.01 0.04 0.17 0.10 0.05 0.13 0.09 0.10 0.01 0.00 0.00 0.00 0.00 0.01 0.00 0.00 0.00 0.00 0.00 0.00 0.00 0.00
0.09 0.05 0.02 0.01 0.01 0.15 1.03 0.65 0.04 0.05 0.09 0.02 0.00 0.00 0.00 0.00 0.00 0.00 0.00 0.00 0.00 0.00 0.03 0.07 0.17 0.16 0.10 0.11 0.21 0.17 0.02 0.02 0.06 0.02 0.01 0.00 0.00 0.00 0.00 0.00 0.00 0.00 0.00 0.00
0.09 0.14 0.10 0.04 0.02 0.03 0.51 0.79 0.21 0.08 0.05 0.04 0.00 0.00 0.01 0.00 0.00 0.00 0.00 0.00 0.00 0.00 0.03 0.10 0.09 0.14 0.07 0.06 0.07 0.19 0.16 0.01 0.06 0.08 0.02 0.00 0.00 0.00 0.00 0.00 0.00 0.00 0.00 0.00
0.05 0.09 0.15 0.12 0.08 0.05 0.18 0.53 0.27 0.32 0.16 0.02 0.02 0.03 0.01 0.00 0.00 0.01 0.00 0.00 0.02 0.06 0.08 0.04 0.01 0.01 0.02 0.03 0.02 0.06 0.13 0.08 0.05 0.06 0.09 0.01 0.00 0.00 0.00 0.00 0.00 0.00 0.00 0.00
0.06 0.06 0.12 0.15 0.13 0.13 0.18 0.27 0.16 0.42 0.26 0.03 0.03 0.05 0.03 0.01 0.02 0.02 0.01 0.04 0.06 0.16 0.09 0.04 0.01 0.00 0.00 0.01 0.00 0.00 0.02 0.05 0.07 0.08 0.06 0.01 0.00 0.00 0.00 0.00 0.00 0.00 0.00 0.00
0.07 0.06 0.08 0.15 0.16 0.22 0.27 0.23 0.13 0.30 0.31 0.13 0.06 0.05 0.05 0.02 0.02 0.03 0.00 0.02 0.02 0.05 0.10 0.04 0.01 0.00 0.00 0.00 0.00 0.00 0.00 0.00 0.01 0.02 0.01 0.01 0.01 0.00 0.00 0.00 0.00 0.00 0.00 0.00
0.10 0.09 0.07 0.13 0.19 0.26 0.36 0.16 0.08 0.54 0.61 0.11 0.09 0.04 0.01 0.01 0.03 0.04 0.11 0.02 0.00 0.01 0.01 0.07 0.05 0.01 0.01 0.00 0.00 0.00 0.00 0.00 0.00 0.01 0.01 0.01 0.01 0.02 0.00 0.00 0.00 0.00 0.00 0.01
0.11 0.09 0.07 0.14 0.22 0.29 0.27 0.10 0.07 0.37 0.39 0.09 0.05 0.08 0.04 0.00 0.01 0.01 0.04 0.04 0.02 0.02 0.06 0.07 0.16 0.05 0.00 0.00 0.00 0.00 0.00 0.00 0.02 0.02 0.00 0.01 0.00 0.01 0.06 0.04 0.00 0.00 0.00 0.00
0.08 0.06 0.07 0.17 0.23 0.23 0.19 0.11 0.08 0.13 0.15 0.04 0.06 0.06 0.04 0.00 0.01 0.01 0.02 0.02 0.05 0.09 0.27 0.24 0.07 0.02 0.00 0.00 0.00 0.00 0.00 0.00 0.01 0.03 0.01 0.01 0.00 0.00 0.00 0.00 0.00 0.00 0.00 0.00
0.05 0.06 0.09 0.13 0.16 0.23 0.29 0.27 0.13 0.08 0.11 0.04 0.07 0.03 0.00 0.01 0.00 0.01 0.02 0.03 0.04 0.10 0.16 0.24 0.12 0.01 0.02 0.02 0.00 0.00 0.00 0.00 0.00 0.00 0.00 0.00 0.00 0.00 0.00 0.00 0.00 0.00 0.00 0.00
0.10 0.11 0.10 0.10 0.15 0.35 0.12 0.13 0.06 0.03 0.04 0.01 0.01 0.01 0.02 0.03 0.01 0.01 0.00 0.02 0.03 0.10 0.18 0.16 0.06 0.02 0.04 0.02 0.00 0.00 0.00 0.00 0.00 0.00 0.00 0.00 0.00 0.00 0.00 0.00 0.00 0.00 0.00 0.00
0.18 0.21 0.25 0.26 0.31 0.17 0.03 0.00 0.02 0.01 0.00 0.00 0.00 0.01 0.04 0.07 0.02 0.00 0.00 0.01 0.05 0.11 0.15 0.15 0.18 0.06 0.07 0.06 0.01 0.00 0.00 0.00 0.00 0.00 0.00 0.00 0.00 0.00 0.00 0.00 0.00 0.00 0.00 0.00
0.16 0.15 0.11 0.12 0.15 0.09 0.03 0.01 0.01 0.02 0.02 0.01 0.00 0.03 0.15 0.11 0.03 0.02 0.04 0.07 0.10 0.10 0.13 0.12 0.21 0.22 0.13 0.03 0.00 0.00 0.00 0.00 0.00 0.00 0.00 0.00 0.00 0.00 0.00 0.00 0.00 0.00 0.00 0.00
0.05 0.05 0.10 0.18 0.08 0.01 0.00 0.01 0.01 0.00 0.01 0.01 0.00 0.01 0.13 0.33 0.23 0.18 0.14 0.17 0.07 0.05 0.06 0.14 0.15 0.23 0.07 0.01 0.00 0.00 0.00 0.00 0.00 0.00 0.00 0.00 0.00 0.00 0.00 0.00 0.00 0.00 0.00 0.00
0.03 0.04 0.05 0.04 0.01 0.04 0.06 0.04 0.02 0.01 0.01 0.00 0.00 0.02 0.08 0.36 0.52 0.23 0.14 0.19 0.08 0.04 0.06 0.13 0.15 0.10 0.07 0.06 0.02 0.00 0.00 0.00 0.00 0.00 0.00 0.00 0.00 0.00 0.00 0.00 0.00 0.00 0.00 0.00
0.02 0.01 0.01 0.02 0.06 0.08 0.04 0.04 0.03 0.04 0.10 0.09 0.04 0.02 0.09 0.34 0.55 0.39 0.18 0.27 0.17 0.05 0.06 0.16 0.24 0.13 0.02 0.01 0.01 0.00 0.00 0.00 0.00 0.00 0.00 0.00 0.00 0.00 0.00 0.00 0.00 0.00 0.00 0.00
0.07 0.04 0.03 0.06 0.05 0.03 0.03 0.02 0.02 0.06 0.20 0.04 0.09 0.05 0.13 0.32 0.48 0.54 0.26 0.37 0.33 0.17 0.12 0.16 0.13 0.07 0.04 0.02 0.01 0.01 0.01 0.00 0.00 0.00 0.00 0.00 0.00 0.00 0.00 0.00 0.00 0.00 0.01 0.02
0.01 0.01 0.00 0.06 0.03 0.04 0.04 0.04 0.03 0.02 0.01 0.01 0.17 0.07 0.12 0.23 0.42 0.52 0.34 0.45 0.47 0.32 0.12 0.11 0.07 0.08 0.06 0.04 0.04 0.04 0.07 0.08 0.07 0.07 0.06 0.06 0.05 0.06 0.06 0.07 0.08 0.07 0.12 0.18
0.01 0.00 0.02 0.02 0.06 0.03 0.01 0.01 0.01 0.01 0.01 0.03 0.06 0.06 0.12 0.24 0.34 0.38 0.27 0.23 0.15 0.10 0.13 0.09 0.12 0.13 0.09 0.08 0.08 0.09 0.11 0.12 0.13 0.13 0.12 0.12 0.12 0.09 0.13 0.16 0.15 0.14 0.17 0.21
0.00 0.02 0.06 0.03 0.03 0.01 0.01 0.01 0.01 0.00 0.01 0.04 0.11 0.13 0.10 0.06 0.06 0.08 0.06 0.06 0.07 0.09 0.14 0.11 0.11 0.13 0.14 0.14 0.13 0.13 0.12 0.12 0.12 0.13 0.12 0.12 0.12 0.12 0.14 0.15 0.15 0.16 0.13 0.16
0.03 0.07 0.05 0.04 0.04 0.04 0.04 0.03 0.02 0.04 0.05 0.08 0.08 0.06 0.06 0.03 0.01 0.02 0.03 0.08 0.08 0.08 0.09 0.11 0.12 0.11 0.13 0.14 0.13 0.13 0.12 0.11 0.13 0.13 0.11 0.13 0.13 0.08 0.04 0.09 0.15 0.11 0.11 0.10

GFSNW_prec_precacc6_069.txt.gz
Total_Precipitation_Accumulation
0.00 0.02 0.03 0.05 0.07 0.12 0.51 0.74 0.31 0.02 0.01 0.08 0.02 0.00 0.00 0.00 0.00 0.00 0.00 0.00 0.00 0.00 0.00 0.00 0.00 0.00 0.00 0.00 0.00 0.00 0.00 0.00 0.00 0.00 0.00 0.00 0.00 0.00 0.00 0.00 0.00 0.00 0.00 0.00
0.03 0.05 0.06 0.08 0.10 0.23 0.67 0.81 0.27 0.07 0.00 0.04 0.00 0.00 0.00 0.00 0.00 0.00 0.00 0.00 0.00 0.00 0.00 0.00 0.00 0.00 0.00 0.00 0.00 0.00 0.00 0.00 0.00 0.00 0.00 0.00 0.00 0.00 0.00 0.00 0.00 0.00 0.00 0.00
0.03 0.05 0.08 0.10 0.13 0.28 0.81 0.86 0.33 0.27 0.13 0.00 0.00 0.00 0.00 0.00 0.00 0.00 0.00 0.00 0.00 0.00 0.00 0.00 0.00 0.00 0.00 0.00 0.00 0.00 0.00 0.00 0.00 0.00 0.00 0.00 0.00 0.00 0.00 0.00 0.00 0.00 0.00 0.00
0.03 0.04 0.06 0.09 0.15 0.30 1.05 0.96 0.20 0.09 0.12 0.05 0.00 0.00 0.00 0.00 0.00 0.00 0.00 0.00 0.00 0.00 0.00 0.00 0.00 0.00 0.00 0.00 0.00 0.00 0.01 0.01 0.00 0.00 0.00 0.00 0.00 0.00 0.00 0.00 0.00 0.00 0.00 0.00
0.05 0.05 0.05 0.08 0.15 0.38 1.25 0.93 0.09 0.00 0.00 0.01 0.01 0.00 0.00 0.00 0.00 0.00 0.00 0.00 0.00 0.00 0.00 0.00 0.00 0.00 0.00 0.00 0.01 0.01 0.02 0.01 0.00 0.00 0.00 0.00 0.00 0.00 0.00 0.00 0.00 0.00 0.00 0.00
0.04 0.05 0.06 0.07 0.14 0.46 1.22 0.70 0.06 0.01 0.02 0.00 0.03 0.01 0.00 0.00 0.00 0.00 0.00 0.00 0.00 0.00 0.00 0.00 0.00 0.01 0.00 0.01 0.02 0.05 0.06 0.08 0.04 0.01 0.00 0.00 0.01 0.00 0.00 0.00 0.00 0.00 0.00 0.00
0.05 0.05 0.06 0.08 0.11 0.32 0.56 0.45 0.07 0.10 0.11 0.00 0.00 0.00 0.00 0.00 0.00 0.00 0.00 0.00 0.00 0.00 0.00 0.02 0.03 0.01 0.00 0.01 0.01 0.06 0.15 0.11 0.14 0.07 0.02 0.09 0.03 0.00 0.00 0.00 0.00 0.00 0.00 0.00
0.05 0.04 0.04 0.06 0.12 0.17 0.32 0.45 0.21 0.05 0.04 0.01 0.00 0.00 0.00 0.00 0.00 0.00 0.00 0.00 0.00 0.00 0.00 0.00 0.00 0.00 0.00 0.00 0.00 0.03 0.13 0.16 0.21 0.11 0.06 0.05 0.00 0.00 0.00 0.00 0.00 0.00 0.00 0.00
0.03 0.04 0.05 0.04 0.05 0.12 0.18 0.37 0.39 0.22 0.08 0.03 0.00 0.00 0.00 0.00 0.00 0.00 0.00 0.00 0.00 0.00 0.00 0.00 0.00 0.00 0.01 0.01 0.00 0.02 0.19 0.21 0.16 0.16 0.14 0.06 0.00 0.00 0.00 0.00 0.00 0.00 0.00 0.00
0.02 0.03 0.05 0.07 0.04 0.05 0.12 0.17 0.24 0.59 0.48 0.04 0.00 0.00 0.00 0.00 0.00 0.00 0.00 0.00 0.00 0.00 0.00 0.00 0.00 0.00 0.00 0.01 0.00 0.01 0.10 0.27 0.25 0.19 0.12 0.03 0.00 0.00 0.00 0.01 0.01 0.00 0.00 0.00
0.03 0.03 0.03 0.05 0.08 0.07 0.12 0.13 0.08 0.28 0.57 0.09 0.00 0.00 0.00 0.00 0.00 0.00 0.00 0.00 0.00 0.00 0.00 0.00 0.00 0.00 0.00 0.00 0.00 0.01 0.03 0.10 0.17 0.20 0.18 0.09 0.02 0.06 0.07 0.01 0.00 0.00 0.00 0.00
0.07 0.06 0.04 0.04 0.06 0.14 0.20 0.27 0.08 0.05 0.28 0.19 0.01 0.00 0.00 0.00 0.00 0.00 0.00 0.00 0.00 0.00 0.00 0.00 0.00 0.00 0.00 0.00 0.00 0.00 0.02 0.00 0.01 0.04 0.04 0.01 0.02 0.08 0.09 0.04 0.01 0.00 0.00 0.00
0.04 0.08 0.09 0.05 0.05 0.13 0.48 0.28 0.07 0.10 0.32 0.31 0.09 0.01 0.00 0.00 0.00 0.00 0.01 0.01 0.01 0.01 0.01 0.01 0.00 0.01 0.00 0.00 0.00 0.00 0.00 0.00 0.00 0.00 0.00 0.00 0.00 0.00 0.00 0.00 0.01 0.01 0.00 0.00
0.05 0.05 0.12 0.09 0.05 0.13 0.58 0.45 0.06 0.06 0.22 0.29 0.14 0.02 0.00 0.00 0.02 0.01 0.02 0.02 0.03 0.05 0.10 0.05 0.02 0.02 0.01 0.00 0.01 0.00 0.00 0.00 0.00 0.00 0.00 0.00 0.00 0.00 0.00 0.00 0.00 0.00 0.00 0.00
0.08 0.05 0.09 0.17 0.13 0.23 0.47 0.26 0.04 0.01 0.23 0.22 0.15 0.08 0.03 0.03 0.04 0.03 0.04 0.02 0.02 0.04 0.10 0.13 0.04 0.04 0.03 0.02 0.04 0.01 0.01 0.02 0.04 0.01 0.01 0.01 0.00 0.00 0.00 0.00 0.00 0.00 0.00 0.00
0.10 0.05 0.12 0.26 0.29 0.37 0.37 0.41 0.24 0.05 0.21 0.49 0.23 0.14 0.05 0.03 0.05 0.04 0.01 0.01 0.01 0.05 0.09 0.11 0.14 0.08 0.12 0.06 0.02 0.01 0.02 0.04 0.02 0.02 0.01 0.02 0.02 0.00 0.00 0.00 0.00 0.00 0.00 0.00
0.07 0.11 0.22 0.39 0.35 0.17 0.12 0.20 0.13 0.07 0.23 0.57 0.48 0.16 0.08 0.03 0.02 0.02 0.01 0.00 0.00 0.02 0.05 0.08 0.06 0.04 0.15 0.18 0.08 0.02 0.02 0.03 0.05 0.04 0.03 0.02 0.00 0.00 0.00 0.00 0.00 0.00 0.00 0.00
0.17 0.25 0.31 0.34 0.24 0.11 0.05 0.00 0.00 0.05 0.20 0.33 0.35 0.17 0.09 0.04 0.01 0.01 0.00 0.00 0.00 0.01 0.01 0.04 0.07 0.09 0.13 0.14 0.07 0.02 0.01 0.02 0.03 0.02 0.02 0.02 0.02 0.01 0.01 0.01 0.01 0.01 0.01 0.00
0.19 0.26 0.34 0.39 0.28 0.16 0.06 0.04 0.08 0.07 0.11 0.07 0.09 0.04 0.05 0.00 0.00 0.00 0.00 0.00 0.00 0.00 0.01 0.02 0.08 0.13 0.26 0.16 0.04 0.01 0.00 0.00 0.00 0.00 0.00 0.02 0.03 0.03 0.02 0.01 0.01 0.00 0.00 0.00
0.16 0.16 0.19 0.44 0.29 0.10 0.09 0.22 0.23 0.07 0.00 0.00 0.00 0.00 0.00 0.00 0.00 0.00 0.01 0.01 0.00 0.02 0.01 0.04 0.06 0.24 0.24 0.09 0.03 0.01 0.00 0.00 0.00 0.00 0.00 0.00 0.01 0.02 0.01 0.01 0.01 0.01 0.00 0.00
0.02 0.05 0.20 0.24 0.11 0.06 0.08 0.07 0.02 0.00 0.00 0.00 0.00 0.00 0.00 0.00 0.00 0.02 0.03 0.06 0.04 0.02 0.02 0.03 0.09 0.14 0.11 0.09 0.08 0.03 0.01 0.01 0.00 0.00 0.00 0.00 0.00 0.00 0.00 0.00 0.00 0.00 0.00 0.00
0.00 0.02 0.03 0.02 0.02 0.01 0.00 0.00 0.00 0.00 0.01 0.00 0.00 0.00 0.00 0.00 0.00 0.00 0.03 0.19 0.16 0.05 0.04 0.03 0.04 0.07 0.03 0.01 0.02 0.02 0.01 0.01 0.01 0.01 0.02 0.02 0.03 0.05 0.05 0.04 0.04 0.03 0.02 0.01
0.00 0.00 0.00 0.00 0.00 0.00 0.00 0.01 0.01 0.06 0.14 0.05 0.02 0.00 0.00 0.00 0.03 0.01 0.05 0.13 0.31 0.13 0.07 0.04 0.04 0.05 0.02 0.02 0.01 0.01 0.01 0.01 0.01 0.01 0.01 0.01 0.01 0.02 0.02 0.03 0.04 0.04 0.04 0.04
0.00 0.00 0.00 0.00 0.01 0.02 0.03 0.03 0.03 0.05 0.05 0.08 0.17 0.05 0.10 0.12 0.14 0.13 0.17 0.08 0.08 0.21 0.08 0.03 0.04 0.05 0.04 0.03 0.03 0.02 0.02 0.03 0.03 0.05 0.05 0.05 0.06 0.07 0.08 0.10 0.12 0.09 0.12 0.18
0.00 0.00 0.01 0.01 0.04 0.02 0.02 0.01 0.01 0.02 0.03 0.14 0.21 0.19 0.18 0.20 0.21 0.13 0.12 0.09 0.08 0.08 0.04 0.04 0.07 0.06 0.04 0.04 0.04 0.04 0.06 0.07 0.08 0.09 0.09 0.10 0.10 0.08 0.11 0.14 0.13 0.11 0.13 0.13
0.00 0.01 0.01 0.00 0.00 0.00 0.00 0.00 0.00 0.00 0.03 0.08 0.09 0.09 0.08 0.12 0.15 0.10 0.07 0.05 0.05 0.06 0.11 0.09 0.10 0.10 0.10 0.11 0.11 0.12 0.13 0.12 0.13 0.13 0.12 0.11 0.10 0.09 0.10 0.10 0.09 0.09 0.07 0.08
0.00 0.01 0.01 0.01 0.01 0.01 0.02 0.01 0.01 0.01 0.01 0.02 0.02 0.03 0.06 0.04 0.04 0.11 0.12 0.12 0.14 0.13 0.20 0.23 0.17 0.18 0.21 0.19 0.17 0.17 0.16 0.15 0.14 0.13 0.11 0.10 0.10 0.05 0.03 0.06 0.09 0.06 0.06 0.05